Farmington, MO

3:22 PM CST on November 14, 2019 (GMT -0600)
Farmington Regional

Weather History for KFAM - June, 2019

Change the Weather History Date:

Monday, June 10, 2019

  Actual Average Record
Temperature  
Mean Temperature 68 °F -  
Max Temperature 75 °F 78 °F 91 °F (2006)
Min Temperature 57 °F 60 °F 53 °F (2017)
Cooling Degree Days 3    
Growing Degree Days 18 (Base 50)    
Moisture  
Dew Point 52 °F    
Average Humidity 57    
Maximum Humidity 84    
Minimum Humidity 38    
Precipitation  
Precipitation 0.00 in - - ()
Sea Level Pressure  
Sea Level Pressure 30.17 in    
Wind  
Wind Speed 11 mph (NNW)    
Max Wind Speed 17 mph    
Max Gust Speed 26 mph    
Visibility 10 miles    
Events      
Averages and records for this station are not official NWS values.
T = Trace of Precipitation, MM = Missing Value Source: NWS Daily Summary

Daily Weather History Graph

Daily Weather History Graph

Search for Another Location

Airport or City:

Astronomy

Jun. 10, 2019 Rise Set
Actual Time 5:39 AM CDT 8:23 PM CDT
Civil Twilight 5:08 AM CDT 8:54 PM CDT
Nautical Twilight 4:29 AM CDT 9:33 PM CDT
Astronomical Twilight 3:45 AM CDT 10:17 PM CDT
Moon 1:22 PM CDT (6/10) 1:42 AM CDT (6/10)
Length of Visible Light 15h 45m
Length of Day
14h 43m
First Quarter, 55% of the Moon is Illuminated
Jun 10
First Quarter
Jun 17
Full
Jun 25
Last Quarter
Jul 2
New
Jul 9
First Quarter

Hourly Weather History & Observations

Time (CDT) Temp. Dew Point Humidity Pressure Visibility Wind Dir Wind Speed Gust Speed Precip Events Conditions
12:56 AM 72.0 °F 66.9 °F 84% 30.01 in 10.0 mi NW 10.4 mph 17.3 mph N/A   Clear
1:56 AM 70.0 °F 62.1 °F 76% 30.03 in 10.0 mi NNW 15.0 mph 26.5 mph N/A   Clear
2:56 AM 68.0 °F 59.0 °F 73% 30.05 in 10.0 mi NW 11.5 mph 18.4 mph N/A   Clear
3:56 AM 66.0 °F 55.0 °F 68% 30.07 in 10.0 mi NW 10.4 mph 18.4 mph N/A   Clear
4:56 AM 64.0 °F 53.1 °F 67% 30.10 in 10.0 mi NW 9.2 mph 16.1 mph N/A   Partly Cloudy
5:56 AM 63.0 °F 52.0 °F 67% 30.12 in 10.0 mi NW 12.7 mph 19.6 mph N/A   Clear
6:56 AM 63.0 °F 52.0 °F 67% 30.15 in 10.0 mi NW 11.5 mph - N/A   Clear
7:56 AM 64.0 °F 51.1 °F 63% 30.17 in 10.0 mi NNW 13.8 mph 24.2 mph N/A   Clear
8:56 AM 66.0 °F 50.0 °F 56% 30.20 in 10.0 mi North 13.8 mph 21.9 mph N/A   Clear
9:56 AM 68.0 °F 48.0 °F 49% 30.20 in 10.0 mi NNW 12.7 mph 24.2 mph N/A   Clear
10:56 AM 70.0 °F 46.9 °F 44% 30.21 in 10.0 mi North 17.3 mph 26.5 mph N/A   Clear
11:56 AM 72.0 °F 48.9 °F 44% 30.22 in 10.0 mi NNW 16.1 mph 21.9 mph N/A   Clear
12:56 PM 73.0 °F 50.0 °F 44% 30.22 in 10.0 mi NNW 15.0 mph 21.9 mph N/A   Clear
1:56 PM 73.9 °F 48.0 °F 40% 30.21 in 10.0 mi NW 12.7 mph 23.0 mph N/A   Clear
2:56 PM 73.9 °F 50.0 °F 43% 30.21 in 10.0 mi NNW 17.3 mph 24.2 mph N/A   Clear
3:56 PM 75.0 °F 48.9 °F 40% 30.21 in 10.0 mi NNW 8.1 mph 18.4 mph N/A   Clear
4:56 PM 75.0 °F 50.0 °F 41% 30.20 in 10.0 mi NNW 13.8 mph 17.3 mph N/A   Clear
5:56 PM 75.0 °F 48.0 °F 38% 30.19 in 10.0 mi NNW 6.9 mph - N/A   Clear
6:56 PM 73.9 °F 46.9 °F 38% 30.19 in 10.0 mi North 6.9 mph - N/A   Clear
7:56 PM 71.1 °F 48.0 °F 44% 30.20 in 10.0 mi NNW 4.6 mph - N/A   Clear
8:56 PM 64.9 °F 51.1 °F 61% 30.22 in 9.0 mi Calm Calm - N/A   Clear
9:56 PM 61.0 °F 53.1 °F 75% 30.23 in 10.0 mi Calm Calm - N/A   Clear
11:56 PM 57.0 °F 52.0 °F 83% 30.23 in 10.0 mi Calm Calm - N/A   Clear